Date String (YYYY-MM-DD hh:mm:ss) UTC,Instrument flags,Ambient pressure (hPa),Sample flow (lpm),Bypass flow (lpm),Sample temperature (°C),Ambient temperature (°C),ASC tube jacket temperature (°C),LED temperature (°C),Box temperature (°C),Sample RH (%),Span deviation,Mass concentration (μg/m³),Mass concentration (μg/m³),Mass concentration (μg/m³)
DateTimeUTC,F1_M11,P_M11,Q1_M11,Q2_M11,T1_M11,T2_M11,T3_M11,T4_M11,T5_M11,U1_M11,ZSPAN_M11,X0_M11,X2_M11,X1_M11
2021-09-07 20:00:00,,0832.4,5.01,0.00,29.2,28.2,00.0,38.1,31.1,15.4,0002.1,0064.30,0042.91,0039.65
2021-09-07 20:01:00,,0832.4,5.01,0.00,29.3,28.4,00.0,38.2,31.2,15.4,0001.9,0064.46,0042.99,0039.64
2021-09-07 20:02:00,,0832.5,4.99,0.00,29.3,27.9,00.0,38.2,31.1,15.6,0001.8,0063.50,0043.00,0039.67
2021-09-07 20:03:00,,0832.5,5.01,0.00,29.2,26.1,00.0,38.2,30.5,15.7,0001.9,0064.31,0042.92,0039.65
2021-09-07 20:04:00,,0832.4,4.99,0.00,29.0,25.7,00.0,38.1,30.4,15.5,0001.7,0065.86,0042.90,0039.63
2021-09-07 20:05:00,,0832.4,5.00,0.00,29.0,26.1,00.0,38.1,30.6,15.6,0001.7,0066.92,0042.93,0039.64
2021-09-07 20:06:00,,0832.3,5.01,0.00,29.0,26.6,00.0,38.1,30.7,15.6,0002.0,0067.34,0042.96,0039.63
2021-09-07 20:07:00,,0832.3,4.99,0.00,29.0,27.1,00.0,38.1,30.8,15.7,0001.7,0068.48,0043.01,0039.63
2021-09-07 20:08:00,,0832.3,5.01,0.00,29.1,27.5,00.0,38.1,30.9,15.6,0001.5,0067.64,0043.00,0039.64
2021-09-07 20:09:00,,0832.4,5.00,0.00,29.1,27.8,00.0,38.1,31.0,15.6,0001.9,0067.29,0043.05,0039.67
2021-09-07 20:10:00,,0832.3,5.00,0.00,29.2,28.1,00.0,38.1,31.1,15.5,0002.2,0067.39,0043.16,0039.69
2021-09-07 20:11:00,,0832.3,5.00,0.00,29.2,28.3,00.0,38.1,31.1,15.6,0002.1,0067.84,0043.15,0039.66
2021-09-07 20:12:00,,0832.4,5.01,0.00,29.3,28.0,00.0,38.2,31.1,15.4,0002.2,0067.78,0043.05,0039.65
2021-09-07 20:13:00,,0832.4,5.00,0.00,29.2,26.2,00.0,38.1,30.5,15.7,0002.8,0067.42,0043.10,0039.65
2021-09-07 20:14:00,,0832.4,5.01,0.00,29.0,25.5,00.0,38.1,30.3,15.6,0002.6,0065.96,0043.07,0039.67
2021-09-07 20:15:00,,0832.4,4.99,0.00,29.0,26.0,00.0,38.1,30.5,15.8,0002.2,0064.95,0043.12,0039.66
2021-09-07 20:16:00,,0832.3,5.00,0.00,28.9,26.4,00.0,38.1,30.6,15.8,0002.1,0064.28,0043.10,0039.64
2021-09-07 20:17:00,,0832.2,5.01,0.00,29.0,26.9,00.0,38.1,30.7,15.7,0002.1,0064.87,0043.00,0039.58
2021-09-07 20:18:00,,0832.2,5.01,0.00,29.0,27.3,00.0,38.1,30.8,15.6,0001.7,0064.75,0042.93,0039.52
2021-09-07 20:19:00,,0832.3,5.00,0.00,29.1,27.7,00.0,38.1,30.9,15.6,0001.5,0064.94,0042.92,0039.47
2021-09-07 20:20:00,,0832.3,5.00,0.00,29.1,28.0,00.0,38.1,31.0,15.7,0001.5,0065.04,0042.76,0039.38
2021-09-07 20:21:00,,0832.2,4.99,0.00,29.2,28.2,00.0,38.1,31.1,15.5,0001.2,0065.86,0042.64,0039.28
2021-09-07 20:22:00,,0832.3,5.00,0.00,29.2,28.4,00.0,38.1,31.2,15.6,0001.3,0065.28,0042.51,0039.19
2021-09-07 20:23:00,,0832.3,5.00,0.00,29.3,28.3,00.0,38.2,31.2,15.5,0001.3,0064.93,0042.44,0039.12
2021-09-07 20:24:00,,0832.3,5.00,0.00,29.2,26.6,00.0,38.2,30.8,15.6,0000.9,0065.92,0042.35,0039.08
2021-09-07 20:25:00,,0832.2,5.01,0.00,29.1,25.6,00.0,38.1,30.4,15.6,0000.8,0067.03,0042.26,0038.96
2021-09-07 20:26:00,,0832.3,5.00,0.00,29.0,26.0,00.0,38.1,30.5,15.7,0001.2,0067.52,0042.04,0038.83
2021-09-07 20:27:00,,0832.2,5.00,0.00,29.0,26.4,00.0,38.1,30.6,16.1,0001.0,0067.95,0041.90,0038.78
2021-09-07 20:28:00,,0832.3,5.00,0.00,29.0,26.9,00.0,38.1,30.7,16.0,0000.7,0067.47,0041.89,0038.79
2021-09-07 20:29:00,,0832.3,4.99,0.00,29.0,27.3,00.0,38.1,30.8,16.2,0001.2,0067.36,0041.91,0038.80
2021-09-07 20:30:00,,0832.3,5.00,0.00,29.1,27.7,00.0,38.1,31.0,16.0,0001.3,0067.75,0041.86,0038.79
2021-09-07 20:31:00,,0832.3,5.01,0.00,29.1,28.0,00.0,38.1,31.0,15.9,0001.2,0069.13,0041.98,0038.79
2021-09-07 20:32:00,,0832.2,5.00,0.00,29.2,28.2,00.0,38.1,31.1,15.9,0001.2,0068.14,0041.94,0038.78
2021-09-07 20:33:00,,0832.3,5.00,0.00,29.2,27.6,00.0,38.2,31.0,15.9,0001.1,0068.88,0041.96,0038.77
2021-09-07 20:34:00,,0832.2,5.02,0.00,29.1,25.9,00.0,38.1,30.5,16.0,0001.1,0069.79,0042.03,0038.80
2021-09-07 20:35:00,,0832.2,4.99,0.00,29.0,25.6,00.0,38.1,30.4,16.4,0001.3,0069.18,0041.99,0038.78
2021-09-07 20:36:00,,0832.2,5.00,0.00,28.9,26.1,00.0,38.1,30.5,16.7,0001.4,0069.95,0042.10,0038.82
2021-09-07 20:37:00,,0832.1,5.00,0.00,28.9,26.5,00.0,38.0,30.6,17.0,0001.4,0069.97,0042.21,0038.90
2021-09-07 20:38:00,,0832.1,4.99,0.00,28.9,26.9,00.0,38.0,30.7,16.8,0001.2,0070.16,0042.34,0038.97
2021-09-07 20:39:00,,0832.1,5.00,0.00,29.0,27.4,00.0,38.0,30.8,16.7,0001.4,0070.00,0042.49,0039.03
2021-09-07 20:40:00,,0832.1,4.99,0.00,29.0,27.7,00.0,38.0,30.9,16.9,0001.4,0069.09,0042.47,0039.07
2021-09-07 20:41:00,,0832.1,5.00,0.00,29.1,28.0,00.0,38.1,31.0,16.4,0001.4,0069.07,0042.57,0039.15
2021-09-07 20:42:00,,0832.2,5.00,0.00,29.2,28.3,00.0,38.1,31.1,16.3,0001.2,0068.16,0042.55,0039.21
2021-09-07 20:43:00,,0832.2,5.01,0.00,29.2,28.4,00.0,38.1,31.2,16.3,0001.2,0069.03,0042.59,0039.27
2021-09-07 20:44:00,,0832.1,4.99,0.00,29.2,27.2,00.0,38.1,30.8,16.4,0001.6,0068.61,0042.73,0039.37
2021-09-07 20:45:00,,0832.1,4.99,0.00,29.1,25.7,00.0,38.1,30.5,16.6,0001.5,0069.26,0042.88,0039.47
2021-09-07 20:46:00,,0832.0,5.01,0.00,29.0,25.8,00.0,38.1,30.4,16.7,0001.3,0069.47,0043.08,0039.59
2021-09-07 20:47:00,,0832.1,4.99,0.00,29.0,26.3,00.0,38.1,30.6,16.7,0001.5,0068.36,0043.11,0039.68
2021-09-07 20:48:00,,0832.0,5.00,0.00,29.0,26.7,00.0,38.1,30.7,17.0,0001.6,0069.05,0043.27,0039.81
2021-09-07 20:49:00,,0832.1,5.00,0.00,29.0,27.2,00.0,38.0,30.8,16.9,0001.8,0069.29,0043.42,0039.91
2021-09-07 20:50:00,,0832.1,5.00,0.00,29.0,27.6,00.0,38.1,30.9,16.8,0002.0,0069.05,0043.56,0040.06
2021-09-07 20:51:00,,0832.1,4.99,0.00,29.1,27.9,00.0,38.1,31.0,16.8,0001.7,0069.46,0043.78,0040.19
2021-09-07 20:52:00,,0832.1,5.00,0.00,29.2,28.2,00.0,38.1,31.1,16.6,0001.6,0070.03,0043.92,0040.27
2021-09-07 20:53:00,,0832.1,5.02,0.00,29.2,28.4,00.0,38.1,31.2,16.5,0001.7,0071.49,0044.05,0040.39
2021-09-07 20:54:00,,0832.1,4.98,0.00,29.2,27.4,00.0,38.1,30.9,16.5,0001.5,0071.49,0044.13,0040.51
2021-09-07 20:55:00,,0832.1,5.01,0.00,29.1,25.7,00.0,38.1,30.3,16.6,0001.5,0071.56,0044.22,0040.62
2021-09-07 20:56:00,,0832.1,4.99,0.00,29.0,25.7,00.0,38.1,30.3,17.0,0001.4,0072.11,0044.28,0040.71
2021-09-07 20:57:00,,0832.0,5.00,0.00,28.9,26.2,00.0,38.1,30.5,17.0,0001.7,0072.32,0044.24,0040.77
2021-09-07 20:58:00,,0832.0,5.00,0.00,28.9,26.6,00.0,38.0,30.6,17.0,0001.7,0072.77,0044.41,0040.88
2021-09-07 20:59:00,,0832.1,5.01,0.00,29.0,27.1,00.0,38.0,30.7,17.3,0001.7,0072.33,0044.42,0040.93
